Regional Weather Roundup
Issued by NWS

Home | Current Version | Previous Version | Graphics & Text | Print | Product List | Glossary On
Versions: 1 2 3 4 5 6 7 8 9 10 11 12 13 14 15 16 17 18 19 20 21 22 23 24 25 26 27 28 29 30 31 32 33 34 35 36 37 38 39 40 41 42 43 44 45 46 47 48 49 50
000
ASUS43 KLOT 252300
RWRIL

ILLINOIS REGIONAL WEATHER ROUNDUP
NATIONAL WEATHER SERVICE CHICAGO/ROMEOVILLE IL
500 PM CST THU DEC 25 2014

NOTE: "FAIR" INDICATES FEW OR NO CLOUDS BELOW 12,000 FEET WITH NO
SIGNIFICANT WEATHER AND/OR OBSTRUCTIONS TO VISIBILITY.

* THESE STATIONS ARE NOT UNDER NWS QUALITY CONTROL. THEY ALSO MAY NOT
  REPORT WEATHER SUCH AS PRECIPITATION OR FOG.

ILZ001-002-007-009-015-016-024-260000-
NORTHWEST ILLINOIS

CITY           SKY/WX    TMP DP  RH WIND       PRES   REMARKS
MOLINE         PTCLDY    44  32  62 SE9       29.88S
STERLING*      PTCLDY    43  34  70 S6        29.93R
$$

ILZ003-004-008-010-011-017-018-260000-
NORTH CENTRAL ILLINOIS

CITY           SKY/WX    TMP DP  RH WIND       PRES   REMARKS
ROCKFORD       MOCLDY    40  31  70 S13       29.94S
$$

ILZ005-006-012>014-019>023-260000-
NORTHEAST ILLINOIS

CITY           SKY/WX    TMP DP  RH WIND       PRES   REMARKS
CHICAGO-OHARE  MOCLDY    39  32  76 S10       29.97R WCI  32
CHICAGO-MIDWAY MOCLDY    42  34  73 S9        29.99R
AURORA         PTCLDY    41  33  73 S10       29.97R
WAUKEGAN       CLOUDY    39  31  72 S7        29.95S WCI  34
DUPAGE AIRPORT PTCLDY    40  33  76 S9        29.96R
WHEELING       CLOUDY    41  31  67 S10       29.98S
NORTHERLY ISL    N/A     41  33  73 S7          N/A
$$

LMZ740>746-260000-
SOUTHERN LAKE MICHIGAN

STATION/POSITION SKY/WX   TEMP    WIND        PRES    VSBY  WAVE
                          AIR SEA DIR/SP/G                  HT/PER
                          (F)     (DEG/KT/KT) (MB)    (MI)  (FT/S)
WAUKEGAN HARBOR            40                   N/A
HARRISON CRIB              41     190/ 17/ 19   N/A
BURNHAM HARBOR             41     170/  5/ 17   N/A
CALUMET HARBOR             41     170/  9/ 15 1014.5F
MICHIGAN CITY              40     170/ 12/ 15   N/A
$$

ILZ025>027-034>036-040-047-049-050-058-095>099-260000-
WEST-CENTRAL ILLINOIS

CITY           SKY/WX    TMP DP  RH WIND       PRES   REMARKS
QUINCY         PTCLDY    46  30  53 S9        29.88S
MACOMB*        PTCLDY    43  34  70 SE13      29.92F
$$

ILZ028>032-037-038-041>044-048-051>054-059>061-260000-
CENTRAL ILLINOIS

CITY           SKY/WX    TMP DP  RH WIND       PRES   REMARKS
DECATUR        CLEAR     43  34  70 S13       30.01F
PEORIA         CLEAR     45  35  68 S14       29.95S
LINCOLN*       CLEAR     44  36  74 S8        29.99R
SPRINGFIELD    CLEAR     44  35  70 S14       29.98S
TAYLORVILLE    NOT AVBL
$$

ILZ033-039-045-046-055>057-062-063-260000-
EAST-CENTRAL ILLINOIS

CITY           SKY/WX    TMP DP  RH WIND       PRES   REMARKS
CHAMPAIGN      CLEAR     41  35  79 S13       30.02S
MATTOON        CLEAR     43  35  73 S10       30.04S
$$

ILZ079-100>102-260000-
SOUTHWEST ILLINOIS

CITY           SKY/WX    TMP DP  RH WIND       PRES   REMARKS
ALTON          CLEAR     46  30  53 S14       29.98S
BELLEVILLE     CLEAR     45  35  68 S14       30.01R
CAHOKIA*       CLEAR     48  33  56 S8        30.00R
$$

ILZ064>066-069>071-074>076-080>082-084>086-088>090-092>094-260000-
SOUTH-CENTRAL ILLINOIS

CITY           SKY/WX    TMP DP  RH WIND       PRES   REMARKS
CARBONDALE     CLEAR     44  34  67 S10       30.07S
MARION         MOCLDY    45  34  65 S14       30.09F
MT. VERNON     CLEAR     45  32  61 S9        30.07F
$$

ILZ067-068-072-073-078-083-087-091-260000-
SOUTHEAST ILLINOIS

CITY           SKY/WX    TMP DP  RH WIND       PRES   REMARKS
LAWRENCEVILLE  CLEAR     42  36  79 S10       30.11S
ROBINSON*      CLEAR     42  34  74 S7        30.12R
$$

ABBREVIATIONS USED IN REMARKS
   TC - TEMPERATURE IN CELSIUS
  WCI - WIND CHILL INDEX
   HX - HEAT INDEX
  VSB - VISIBILITY
$$



USA.gov is the U.S. government's official web portal to all federal, state and local government web resources and services.